Tracking 18980 objects as of 19-Feb-2018
HD Live streaming from Space Station
objects crossing your sky now

FENGYUN 1C DEB

Track FENGYUN 1C DEB now!
10-day predictions


NORAD ID: 31036
Int'l Code: 1999-025BEE
Perigee: 643.6 km
Apogee: 852.4 km
Inclination: 98.9 °
Period: 99.6 minutes
Semi major axis: 7118 km
RCS: 0.0103 m2 (small)
Launch date: May 10, 1999
Source: People's Republic of China (PRC)
Launch site: Taiyaun Space Center, China (TSC)

Note: This is SATELLITE DEBRIS
aabbcc
Your satellite tracking list
Your tracking list is empty




NASA's NSSDC Master Catalog

Two Line Element Set (TLE):
1 31036U 99025BEE 18048.71780994  .00000029  00000-0  21008-4 0  9990
2 31036  98.9161 315.9227 0146649 149.3939 267.1305 14.45363364575567
Source of the keplerian elements: AFSPC